Time,TemperatureF,DewpointF,PressureIn,WindDirection,WindDirectionDegrees,WindSpeedMPH,WindSpeedGustMPH,Humidity,HourlyPrecipIn,Conditions,Clouds,dailyrainin,SolarRadiationWatts/m^2,SoftwareType,DateUTC
2013-09-08 00:01:00,63.3,57.4,29.89,SSE,163,0.0,0.0,81,0.00,,,0.00,0,Wunderground v.1.15,2013-09-08 04:01:00,
2013-09-08 00:03:00,63.2,57.6,29.89,SSE,163,0.0,0.0,82,0.00,,,0.00,0,Wunderground v.1.15,2013-09-08 04:03:00,
2013-09-08 00:05:00,63.2,57.6,29.89,SSE,163,0.0,0.0,82,0.00,,,0.00,0,Wunderground v.1.15,2013-09-08 04:05:00,
2013-09-08 00:10:00,63.1,57.5,29.89,SSE,163,0.0,0.0,82,0.00,,,0.00,0,Wunderground v.1.15,2013-09-08 04:10:00,
2013-09-08 00:15:00,63.3,57.7,29.89,SSE,163,0.0,0.0,82,0.00,,,0.00,0,Wunderground v.1.15,2013-09-08 04:15:00,
2013-09-08 00:18:00,63.3,57.7,29.89,SSE,163,0.0,0.0,82,0.00,,,0.00,0,Wunderground v.1.15,2013-09-08 04:18:00,
2013-09-08 00:23:00,63.3,57.7,29.88,SSE,163,0.0,0.0,82,0.00,,,0.00,0,Wunderground v.1.15,2013-09-08 04:23:00,
2013-09-08 00:29:00,63.3,58.0,29.88,SSE,163,0.0,0.0,83,0.00,,,0.00,0,Wunderground v.1.15,2013-09-08 04:29:00,
2013-09-08 00:34:00,63.3,58.0,29.88,SSE,163,0.0,0.0,83,0.00,,,0.00,0,Wunderground v.1.15,2013-09-08 04:34:00,
2013-09-08 00:39:00,63.4,58.1,29.88,SSE,163,0.0,0.0,83,0.00,,,0.00,0,Wunderground v.1.15,2013-09-08 04:39:00,
2013-09-08 00:45:00,63.5,58.2,29.88,SSE,163,0.0,0.0,83,0.00,,,0.00,0,Wunderground v.1.15,2013-09-08 04:45:00,
2013-09-08 00:50:00,63.6,58.3,29.88,SSE,163,0.0,0.0,83,0.00,,,0.00,0,Wunderground v.1.15,2013-09-08 04:50:00,
2013-09-08 00:55:00,63.5,58.2,29.88,SSE,163,0.0,0.0,83,0.00,,,0.00,0,Wunderground v.1.15,2013-09-08 04:55:00,
2013-09-08 01:00:00,63.6,58.3,29.88,SSE,163,0.0,0.0,83,0.00,,,0.00,0,Wunderground v.1.15,2013-09-08 05:00:00,
2013-09-08 01:06:00,63.6,58.3,29.87,SSE,163,0.0,0.0,83,0.00,,,0.00,0,Wunderground v.1.15,2013-09-08 05:06:00,
2013-09-08 01:11:00,63.5,58.2,29.87,SSE,163,0.0,0.0,83,0.00,,,0.00,0,Wunderground v.1.15,2013-09-08 05:11:00,
2013-09-08 01:16:00,63.6,58.3,29.87,SSE,163,0.0,0.0,83,0.00,,,0.00,0,Wunderground v.1.15,2013-09-08 05:16:00,
2013-09-08 01:22:00,63.6,58.7,29.87,SSE,163,0.0,0.0,84,0.00,,,0.00,0,Wunderground v.1.15,2013-09-08 05:22:00,
2013-09-08 01:27:00,63.7,58.4,29.87,SSE,163,0.0,0.0,83,0.00,,,0.00,0,Wunderground v.1.15,2013-09-08 05:27:00,
2013-09-08 01:32:00,63.7,58.8,29.86,SSE,163,0.0,0.0,84,0.00,,,0.00,0,Wunderground v.1.15,2013-09-08 05:32:00,
2013-09-08 01:37:00,63.6,58.7,29.86,SSE,163,0.0,0.0,84,0.00,,,0.00,0,Wunderground v.1.15,2013-09-08 05:37:00,
2013-09-08 01:42:00,63.5,58.6,29.86,SSE,163,0.0,0.0,84,0.00,,,0.00,0,Wunderground v.1.15,2013-09-08 05:42:00,
2013-09-08 01:47:00,63.6,58.7,29.86,SSE,163,0.0,0.0,84,0.00,,,0.00,0,Wunderground v.1.15,2013-09-08 05:47:00,
2013-09-08 01:52:00,63.6,58.7,29.85,SSE,163,0.0,0.0,84,0.00,,,0.00,0,Wunderground v.1.15,2013-09-08 05:52:00,
2013-09-08 01:57:00,63.5,58.6,29.85,SSE,163,0.0,0.0,84,0.00,,,0.00,0,Wunderground v.1.15,2013-09-08 05:57:00,
2013-09-08 02:03:00,63.6,58.7,29.85,SSE,163,0.0,0.0,84,0.00,,,0.00,0,Wunderground v.1.15,2013-09-08 06:03:00,
2013-09-08 02:08:00,63.6,59.0,29.85,SSE,163,0.0,0.0,85,0.00,,,0.00,0,Wunderground v.1.15,2013-09-08 06:08:00,
2013-09-08 02:14:00,63.6,59.0,29.85,SSE,163,0.0,0.0,85,0.00,,,0.00,0,Wunderground v.1.15,2013-09-08 06:14:00,
2013-09-08 02:19:00,63.6,59.0,29.85,SSE,163,0.0,0.0,85,0.00,,,0.00,0,Wunderground v.1.15,2013-09-08 06:19:00,
2013-09-08 02:24:00,63.5,58.9,29.85,SSE,163,0.0,0.0,85,0.00,,,0.00,0,Wunderground v.1.15,2013-09-08 06:24:00,
2013-09-08 02:30:00,63.6,59.0,29.85,SSE,165,0.0,0.0,85,0.00,,,0.00,0,Wunderground v.1.15,2013-09-08 06:30:00,
2013-09-08 02:35:00,63.6,59.3,29.85,SSE,165,0.0,0.0,86,0.00,,,0.00,0,Wunderground v.1.15,2013-09-08 06:35:00,
2013-09-08 02:40:00,63.5,59.2,29.85,SSE,165,0.0,0.0,86,0.00,,,0.00,0,Wunderground v.1.15,2013-09-08 06:40:00,
2013-09-08 02:45:00,63.5,59.2,29.85,SSE,165,0.0,0.0,86,0.00,,,0.00,0,Wunderground v.1.15,2013-09-08 06:45:00,
2013-09-08 02:50:00,63.7,59.4,29.85,SSE,165,0.0,0.0,86,0.00,,,0.00,0,Wunderground v.1.15,2013-09-08 06:50:00,
2013-09-08 02:55:00,63.8,59.5,29.85,SSE,165,0.0,0.0,86,0.00,,,0.00,0,Wunderground v.1.15,2013-09-08 06:55:00,
2013-09-08 03:00:00,63.8,59.5,29.84,SSE,165,0.0,0.0,86,0.00,,,0.00,0,Wunderground v.1.15,2013-09-08 07:00:00,
2013-09-08 03:06:00,63.8,59.5,29.85,WSW,245,0.0,0.0,86,0.00,,,0.00,0,Wunderground v.1.15,2013-09-08 07:06:00,
2013-09-08 03:12:00,63.8,59.5,29.84,SW,217,0.0,0.0,86,0.00,,,0.00,0,Wunderground v.1.15,2013-09-08 07:12:00,
2013-09-08 03:17:00,63.8,59.5,29.84,SW,217,0.0,0.0,86,0.00,,,0.00,0,Wunderground v.1.15,2013-09-08 07:17:00,
2013-09-08 03:22:00,63.7,59.4,29.84,SW,217,0.0,0.0,86,0.00,,,0.00,0,Wunderground v.1.15,2013-09-08 07:22:00,
2013-09-08 03:27:00,63.6,59.3,29.84,SW,217,0.0,0.0,86,0.00,,,0.00,0,Wunderground v.1.15,2013-09-08 07:27:00,
2013-09-08 03:32:00,63.5,59.6,29.84,SW,217,0.0,0.0,87,0.00,,,0.00,0,Wunderground v.1.15,2013-09-08 07:32:00,
2013-09-08 03:38:00,63.4,59.5,29.83,SW,217,0.0,0.0,87,0.00,,,0.00,0,Wunderground v.1.15,2013-09-08 07:38:00,
2013-09-08 03:43:00,63.5,59.6,29.83,SW,217,0.0,0.0,87,0.00,,,0.00,0,Wunderground v.1.15,2013-09-08 07:43:00,
2013-09-08 03:48:00,63.5,59.6,29.83,SW,217,0.0,0.0,87,0.00,,,0.00,0,Wunderground v.1.15,2013-09-08 07:48:00,
2013-09-08 03:54:00,63.5,59.6,29.83,SW,217,0.0,0.0,87,0.00,,,0.00,0,Wunderground v.1.15,2013-09-08 07:54:00,
2013-09-08 03:59:00,63.4,59.8,29.83,SW,217,0.0,0.0,88,0.00,,,0.00,0,Wunderground v.1.15,2013-09-08 07:59:00,
2013-09-08 04:04:00,63.3,59.7,29.83,SW,217,0.0,0.0,88,0.00,,,0.00,0,Wunderground v.1.15,2013-09-08 08:04:00,
2013-09-08 04:09:00,63.2,59.6,29.83,SW,217,0.0,0.0,88,0.00,,,0.00,0,Wunderground v.1.15,2013-09-08 08:09:00,
2013-09-08 04:15:00,63.2,59.9,29.82,SW,217,0.0,0.0,89,0.00,,,0.00,0,Wunderground v.1.15,2013-09-08 08:15:00,
2013-09-08 04:20:00,63.2,59.9,29.81,SW,217,0.0,0.0,89,0.00,,,0.00,0,Wunderground v.1.15,2013-09-08 08:20:00,
2013-09-08 04:25:00,63.3,60.0,29.81,SW,217,0.0,0.0,89,0.00,,,0.00,0,Wunderground v.1.15,2013-09-08 08:25:00,
2013-09-08 04:30:00,63.3,60.0,29.81,SW,217,0.0,1.0,89,0.00,,,0.00,0,Wunderground v.1.15,2013-09-08 08:30:00,
2013-09-08 04:35:00,63.4,60.1,29.80,SSE,153,0.0,1.0,89,0.00,,,0.00,0,Wunderground v.1.15,2013-09-08 08:35:00,
2013-09-08 04:40:00,63.4,60.1,29.80,SSE,153,0.0,0.0,89,0.00,,,0.00,0,Wunderground v.1.15,2013-09-08 08:40:00,
2013-09-08 04:45:00,63.4,60.1,29.79,SSE,153,0.0,0.0,89,0.00,,,0.00,0,Wunderground v.1.15,2013-09-08 08:45:00,
2013-09-08 04:50:00,63.5,60.2,29.79,South,175,0.0,0.0,89,0.00,,,0.00,0,Wunderground v.1.15,2013-09-08 08:50:00,
2013-09-08 04:55:00,63.4,60.4,29.79,South,175,0.0,0.0,90,0.00,,,0.00,0,Wunderground v.1.15,2013-09-08 08:55:00,
2013-09-08 05:01:00,63.3,60.3,29.80,South,175,0.0,0.0,90,0.00,,,0.00,0,Wunderground v.1.15,2013-09-08 09:01:00,
2013-09-08 05:06:00,63.2,60.5,29.80,South,175,0.0,0.0,91,0.00,,,0.00,0,Wunderground v.1.15,2013-09-08 09:06:00,
2013-09-08 05:11:00,63.4,60.7,29.79,South,175,0.0,0.0,91,0.00,,,0.00,0,Wunderground v.1.15,2013-09-08 09:11:00,
2013-09-08 05:16:00,63.5,60.8,29.80,South,175,0.0,0.0,91,0.00,,,0.00,0,Wunderground v.1.15,2013-09-08 09:16:00,
2013-09-08 05:21:00,63.6,60.9,29.80,South,175,0.0,0.0,91,0.00,,,0.00,0,Wunderground v.1.15,2013-09-08 09:21:00,
2013-09-08 05:26:00,63.6,60.9,29.80,South,175,0.0,0.0,91,0.00,,,0.00,0,Wunderground v.1.15,2013-09-08 09:26:00,
2013-09-08 05:31:00,63.7,61.0,29.80,South,175,0.0,0.0,91,0.00,,,0.00,0,Wunderground v.1.15,2013-09-08 09:31:00,
2013-09-08 05:36:00,63.6,60.9,29.80,South,175,0.0,0.0,91,0.00,,,0.00,0,Wunderground v.1.15,2013-09-08 09:36:00,
2013-09-08 05:41:00,63.8,61.1,29.80,South,175,0.0,0.0,91,0.00,,,0.00,0,Wunderground v.1.15,2013-09-08 09:41:00,
2013-09-08 05:47:00,63.9,61.2,29.80,South,175,0.0,0.0,91,0.00,,,0.00,0,Wunderground v.1.15,2013-09-08 09:47:00,
2013-09-08 05:53:00,63.7,61.0,29.80,South,175,0.0,0.0,91,0.00,,,0.00,0,Wunderground v.1.15,2013-09-08 09:53:00,
2013-09-08 05:58:00,63.4,61.0,29.80,South,175,0.0,0.0,92,0.00,,,0.00,0,Wunderground v.1.15,2013-09-08 09:58:00,
2013-09-08 06:04:00,63.2,60.8,29.80,South,175,0.0,0.0,92,0.00,,,0.00,0,Wunderground v.1.15,2013-09-08 10:04:00,
2013-09-08 06:10:00,63.2,60.8,29.80,South,175,0.0,0.0,92,0.00,,,0.00,0,Wunderground v.1.15,2013-09-08 10:10:00,
2013-09-08 06:15:00,63.1,60.7,29.80,South,175,0.0,0.0,92,0.00,,,0.00,0,Wunderground v.1.15,2013-09-08 10:15:00,
2013-09-08 06:20:00,63.0,60.9,29.79,South,175,0.0,0.0,93,0.00,,,0.00,0,Wunderground v.1.15,2013-09-08 10:20:00,
2013-09-08 06:25:00,63.0,60.9,29.79,South,175,0.0,0.0,93,0.00,,,0.00,0,Wunderground v.1.15,2013-09-08 10:25:00,
2013-09-08 06:30:00,62.9,60.8,29.79,South,175,0.0,0.0,93,0.00,,,0.00,0,Wunderground v.1.15,2013-09-08 10:30:00,
2013-09-08 06:35:00,62.9,60.8,29.79,South,175,0.0,0.0,93,0.00,,,0.00,5,Wunderground v.1.15,2013-09-08 10:35:00,
2013-09-08 06:41:00,62.9,60.8,29.78,South,175,0.0,0.0,93,0.00,,,0.00,7,Wunderground v.1.15,2013-09-08 10:41:00,
2013-09-08 06:46:00,62.9,60.8,29.78,South,175,0.0,0.0,93,0.00,,,0.00,11,Wunderground v.1.15,2013-09-08 10:46:00,
2013-09-08 06:51:00,62.7,60.6,29.78,South,175,0.0,0.0,93,0.00,,,0.00,12,Wunderground v.1.15,2013-09-08 10:51:00,
2013-09-08 06:56:00,62.7,60.9,29.78,South,175,0.0,0.0,94,0.00,,,0.00,11,Wunderground v.1.15,2013-09-08 10:56:00,
2013-09-08 07:01:00,62.6,60.8,29.78,South,175,0.0,0.0,94,0.00,,,0.00,16,Wunderground v.1.15,2013-09-08 11:01:00,
2013-09-08 07:06:00,62.5,60.7,29.79,South,175,0.0,0.0,94,0.00,,,0.00,26,Wunderground v.1.15,2013-09-08 11:06:00,
2013-09-08 07:11:00,62.6,61.1,29.79,South,175,0.0,0.0,95,0.00,,,0.00,37,Wunderground v.1.15,2013-09-08 11:11:00,
2013-09-08 07:16:00,63.0,61.5,29.79,South,175,0.0,0.0,95,0.00,,,0.00,28,Wunderground v.1.15,2013-09-08 11:16:00,
2013-09-08 07:22:00,63.3,61.5,29.79,South,175,0.0,0.0,94,0.00,,,0.00,25,Wunderground v.1.15,2013-09-08 11:22:00,
2013-09-08 07:27:00,63.5,61.7,29.79,West,267,0.0,1.0,94,0.00,,,0.00,35,Wunderground v.1.15,2013-09-08 11:27:00,
2013-09-08 07:32:00,63.9,61.8,29.79,SSW,209,0.0,0.0,93,0.00,,,0.00,44,Wunderground v.1.15,2013-09-08 11:32:00,
2013-09-08 07:37:00,64.3,62.2,29.78,WNW,286,0.0,0.0,93,0.00,,,0.00,65,Wunderground v.1.15,2013-09-08 11:37:00,
2013-09-08 07:42:00,64.8,62.4,29.78,WSW,250,0.0,0.0,92,0.00,,,0.00,62,Wunderground v.1.15,2013-09-08 11:42:00,
2013-09-08 07:47:00,65.3,62.6,29.77,WNW,282,0.0,3.0,91,0.00,,,0.00,37,Wunderground v.1.15,2013-09-08 11:47:00,
2013-09-08 07:52:00,65.4,62.4,29.77,WNW,286,0.0,0.0,90,0.00,,,0.00,23,Wunderground v.1.15,2013-09-08 11:52:00,
2013-09-08 07:57:00,65.5,62.5,29.78,SW,226,0.0,2.0,90,0.00,,,0.00,54,Wunderground v.1.15,2013-09-08 11:57:00,
2013-09-08 08:02:00,65.9,62.6,29.78,WNW,292,1.0,3.0,89,0.00,,,0.00,90,Wunderground v.1.15,2013-09-08 12:02:00,
2013-09-08 08:08:00,66.6,62.6,29.78,ESE,117,1.0,3.0,87,0.00,,,0.00,93,Wunderground v.1.15,2013-09-08 12:08:00,
2013-09-08 08:13:00,66.9,62.6,29.78,NW,321,0.0,1.0,86,0.00,,,0.00,81,Wunderground v.1.15,2013-09-08 12:13:00,
2013-09-08 08:18:00,67.1,62.4,29.78,East,88,0.0,1.0,85,0.00,,,0.00,69,Wunderground v.1.15,2013-09-08 12:18:00,
2013-09-08 08:23:00,67.1,62.1,29.78,NW,307,0.0,4.0,84,0.00,,,0.00,84,Wunderground v.1.15,2013-09-08 12:23:00,
2013-09-08 08:28:00,67.2,62.5,29.77,NNW,330,1.0,4.0,85,0.00,,,0.00,109,Wunderground v.1.15,2013-09-08 12:28:00,
2013-09-08 08:33:00,67.5,62.5,29.77,East,82,0.0,2.0,84,0.00,,,0.00,95,Wunderground v.1.15,2013-09-08 12:33:00,
2013-09-08 08:39:00,67.7,62.3,29.77,East,82,0.0,2.0,83,0.00,,,0.00,83,Wunderground v.1.15,2013-09-08 12:39:00,
2013-09-08 08:44:00,67.9,62.2,29.78,NNW,347,0.0,2.0,82,0.00,,,0.00,91,Wunderground v.1.15,2013-09-08 12:44:00,
2013-09-08 08:50:00,68.0,62.3,29.78,WNW,289,1.0,1.0,82,0.00,,,0.00,113,Wunderground v.1.15,2013-09-08 12:50:00,
2013-09-08 08:55:00,68.2,61.8,29.77,South,175,0.0,1.0,80,0.00,,,0.00,93,Wunderground v.1.15,2013-09-08 12:55:00,
2013-09-08 09:00:00,68.2,61.8,29.77,ESE,117,0.0,0.0,80,0.00,,,0.00,86,Wunderground v.1.15,2013-09-08 13:00:00,
2013-09-08 09:06:00,68.6,62.2,29.76,West,270,0.0,2.0,80,0.00,,,0.00,123,Wunderground v.1.15,2013-09-08 13:06:00,
2013-09-08 09:11:00,69.2,62.4,29.76,NW,310,0.0,2.0,79,0.00,,,0.00,160,Wunderground v.1.15,2013-09-08 13:11:00,
2013-09-08 09:16:00,70.0,62.5,29.76,SSE,155,0.0,2.0,77,0.00,,,0.00,83,Wunderground v.1.15,2013-09-08 13:16:00,
2013-09-08 09:21:00,69.7,62.5,29.76,SE,134,0.0,0.0,78,0.00,,,0.00,174,Wunderground v.1.15,2013-09-08 13:21:00,
2013-09-08 09:27:00,69.7,62.2,29.76,NW,311,1.0,3.0,77,0.00,,,0.00,104,Wunderground v.1.15,2013-09-08 13:27:00,
2013-09-08 09:32:00,69.7,62.5,29.76,West,275,1.0,1.0,78,0.00,,,0.00,153,Wunderground v.1.15,2013-09-08 13:32:00,
2013-09-08 09:37:00,69.8,62.6,29.76,West,260,0.0,1.0,78,0.00,,,0.00,146,Wunderground v.1.15,2013-09-08 13:37:00,
2013-09-08 09:42:00,69.9,62.7,29.76,West,275,1.0,1.0,78,0.00,,,0.00,86,Wunderground v.1.15,2013-09-08 13:42:00,
2013-09-08 09:48:00,69.7,61.8,29.76,NNW,327,1.0,3.0,76,0.00,,,0.00,100,Wunderground v.1.15,2013-09-08 13:48:00,
2013-09-08 09:54:00,69.6,62.1,29.76,West,276,1.0,1.0,77,0.00,,,0.00,128,Wunderground v.1.15,2013-09-08 13:54:00,
2013-09-08 09:59:00,69.8,62.3,29.76,NNW,331,1.0,1.0,77,0.00,,,0.00,104,Wunderground v.1.15,2013-09-08 13:59:00,
2013-09-08 10:04:00,69.9,62.4,29.76,NW,304,0.0,1.0,77,0.00,,,0.00,151,Wunderground v.1.15,2013-09-08 14:04:00,
2013-09-08 10:09:00,70.7,62.8,29.77,WSW,253,1.0,3.0,76,0.00,,,0.00,178,Wunderground v.1.15,2013-09-08 14:09:00,
2013-09-08 10:15:00,71.2,62.5,29.76,NNW,346,2.0,5.0,74,0.00,,,0.00,132,Wunderground v.1.15,2013-09-08 14:15:00,
2013-09-08 10:20:00,70.9,62.6,29.76,West,266,2.0,2.0,75,0.00,,,0.00,125,Wunderground v.1.15,2013-09-08 14:20:00,
2013-09-08 10:25:00,71.8,63.4,29.76,SW,231,1.0,2.0,75,0.00,,,0.00,710,Wunderground v.1.15,2013-09-08 14:25:00,
2013-09-08 10:31:00,72.3,62.8,29.76,WSW,241,1.0,1.0,72,0.00,,,0.00,712,Wunderground v.1.15,2013-09-08 14:31:00,
2013-09-08 10:36:00,71.7,62.2,29.76,NW,306,1.0,5.0,72,0.00,,,0.00,176,Wunderground v.1.15,2013-09-08 14:36:00,
2013-09-08 10:42:00,72.1,62.6,29.76,West,269,1.0,1.0,72,0.00,,,0.00,183,Wunderground v.1.15,2013-09-08 14:42:00,
2013-09-08 10:47:00,71.8,62.7,29.75,SE,135,1.0,5.0,73,0.00,,,0.00,721,Wunderground v.1.15,2013-09-08 14:47:00,
2013-09-08 10:52:00,73.6,64.0,29.75,NW,326,1.0,1.0,72,0.00,,,0.00,719,Wunderground v.1.15,2013-09-08 14:52:00,
2013-09-08 10:57:00,74.2,63.4,29.76,South,172,1.0,2.0,69,0.00,,,0.00,763,Wunderground v.1.15,2013-09-08 14:57:00,
2013-09-08 11:02:00,74.0,64.0,29.76,NNE,19,1.0,3.0,71,0.00,,,0.00,504,Wunderground v.1.15,2013-09-08 15:02:00,
2013-09-08 11:07:00,75.0,63.7,29.76,WNW,294,2.0,3.0,68,0.00,,,0.00,726,Wunderground v.1.15,2013-09-08 15:07:00,
2013-09-08 11:12:00,75.5,63.3,29.75,WSW,238,2.0,4.0,66,0.00,,,0.00,731,Wunderground v.1.15,2013-09-08 15:12:00,
2013-09-08 11:17:00,75.6,63.9,29.75,WSW,257,2.0,4.0,67,0.00,,,0.00,738,Wunderground v.1.15,2013-09-08 15:17:00,
2013-09-08 11:22:00,76.2,64.0,29.75,WNW,291,2.0,5.0,66,0.00,,,0.00,756,Wunderground v.1.15,2013-09-08 15:22:00,
2013-09-08 11:28:00,76.8,65.4,29.75,NNW,346,1.0,5.0,68,0.00,,,0.00,772,Wunderground v.1.15,2013-09-08 15:28:00,
2013-09-08 11:34:00,77.3,63.7,29.76,West,270,1.0,5.0,63,0.00,,,0.00,796,Wunderground v.1.15,2013-09-08 15:34:00,
2013-09-08 11:39:00,76.5,64.7,29.76,WNW,296,1.0,5.0,67,0.00,,,0.00,323,Wunderground v.1.15,2013-09-08 15:39:00,
2013-09-08 11:44:00,75.3,64.0,29.76,West,273,1.0,3.0,68,0.00,,,0.00,385,Wunderground v.1.15,2013-09-08 15:44:00,
2013-09-08 11:49:00,75.1,64.6,29.76,SW,223,1.0,3.0,70,0.00,,,0.00,199,Wunderground v.1.15,2013-09-08 15:49:00,
2013-09-08 11:54:00,75.9,63.7,29.76,WSW,247,1.0,4.0,66,0.00,,,0.00,262,Wunderground v.1.15,2013-09-08 15:54:00,
2013-09-08 11:59:00,76.1,64.3,29.76,WSW,250,2.0,4.0,67,0.00,,,0.00,213,Wunderground v.1.15,2013-09-08 15:59:00,
2013-09-08 12:05:00,76.1,64.3,29.75,WNW,285,1.0,5.0,67,0.00,,,0.00,202,Wunderground v.1.15,2013-09-08 16:05:00,
2013-09-08 12:10:00,75.7,64.4,29.75,NW,317,1.0,1.0,68,0.00,,,0.00,116,Wunderground v.1.15,2013-09-08 16:10:00,
2013-09-08 12:15:00,75.0,64.1,29.76,WNW,294,1.0,2.0,69,0.00,,,0.00,141,Wunderground v.1.15,2013-09-08 16:15:00,
2013-09-08 12:20:00,75.3,64.4,29.76,NNE,27,1.0,2.0,69,0.00,,,0.00,125,Wunderground v.1.15,2013-09-08 16:20:00,
2013-09-08 12:25:00,76.1,64.8,29.75,WNW,285,1.0,4.0,68,0.00,,,0.00,229,Wunderground v.1.15,2013-09-08 16:25:00,
2013-09-08 12:31:00,76.4,64.6,29.75,ESE,117,2.0,2.0,67,0.00,,,0.00,156,Wunderground v.1.15,2013-09-08 16:31:00,
2013-09-08 12:36:00,75.9,63.7,29.75,NW,309,1.0,2.0,66,0.00,,,0.00,346,Wunderground v.1.15,2013-09-08 16:36:00,
2013-09-08 12:42:00,75.7,64.4,29.76,NW,314,1.0,4.0,68,0.00,,,0.00,83,Wunderground v.1.15,2013-09-08 16:42:00,
2013-09-08 12:47:00,74.6,64.6,29.76,NW,322,1.0,4.0,71,0.00,,,0.00,178,Wunderground v.1.15,2013-09-08 16:47:00,
2013-09-08 12:53:00,75.9,64.2,29.76,SW,227,1.0,1.0,67,0.00,,,0.00,197,Wunderground v.1.15,2013-09-08 16:53:00,
2013-09-08 12:58:00,77.1,64.0,29.76,West,275,1.0,6.0,64,0.00,,,0.00,214,Wunderground v.1.15,2013-09-08 16:58:00,
2013-09-08 13:03:00,76.8,63.2,29.76,NW,315,1.0,5.0,63,0.00,,,0.00,167,Wunderground v.1.15,2013-09-08 17:03:00,
2013-09-08 13:09:00,75.8,62.8,29.76,NNE,17,2.0,5.0,64,0.00,,,0.00,174,Wunderground v.1.15,2013-09-08 17:09:00,
2013-09-08 13:14:00,75.3,62.7,29.76,NNW,338,2.0,3.0,65,0.00,,,0.00,165,Wunderground v.1.15,2013-09-08 17:14:00,
2013-09-08 13:19:00,74.9,63.2,29.76,North,5,2.0,3.0,67,0.00,,,0.00,265,Wunderground v.1.15,2013-09-08 17:19:00,
2013-09-08 13:24:00,76.6,65.2,29.76,NE,53,1.0,2.0,68,0.00,,,0.00,360,Wunderground v.1.15,2013-09-08 17:24:00,
2013-09-08 13:30:00,76.2,63.6,29.77,ENE,59,1.0,2.0,65,0.00,,,0.00,79,Wunderground v.1.15,2013-09-08 17:30:00,
2013-09-08 13:35:00,74.9,63.6,29.77,NW,319,1.0,3.0,68,0.00,,,0.00,77,Wunderground v.1.15,2013-09-08 17:35:00,
2013-09-08 13:40:00,73.9,63.5,29.77,NNE,12,1.0,1.0,70,0.00,,,0.00,113,Wunderground v.1.15,2013-09-08 17:40:00,
2013-09-08 13:45:00,73.5,62.7,29.77,North,5,1.0,2.0,69,0.00,,,0.00,121,Wunderground v.1.15,2013-09-08 17:45:00,
2013-09-08 13:50:00,74.3,63.1,29.77,WNW,296,1.0,1.0,68,0.00,,,0.00,130,Wunderground v.1.15,2013-09-08 17:50:00,
2013-09-08 13:56:00,74.3,63.9,29.77,NNW,332,1.0,4.0,70,0.00,,,0.00,102,Wunderground v.1.15,2013-09-08 17:56:00,
2013-09-08 14:01:00,74.0,62.8,29.77,NNE,15,0.0,1.0,68,0.00,,,0.00,97,Wunderground v.1.15,2013-09-08 18:01:00,
2013-09-08 14:07:00,74.8,63.1,29.77,NNW,343,1.0,5.0,67,0.00,,,0.00,90,Wunderground v.1.15,2013-09-08 18:07:00,
2013-09-08 14:12:00,75.5,62.9,29.77,NNE,27,1.0,2.0,65,0.00,,,0.00,158,Wunderground v.1.15,2013-09-08 18:12:00,
2013-09-08 14:17:00,75.7,63.1,29.77,WSW,242,1.0,3.0,65,0.00,,,0.00,134,Wunderground v.1.15,2013-09-08 18:17:00,
2013-09-08 14:22:00,75.5,62.0,29.76,NE,44,1.0,2.0,63,0.00,,,0.00,151,Wunderground v.1.15,2013-09-08 18:22:00,
2013-09-08 14:27:00,75.4,63.7,29.77,NNW,343,1.0,3.0,67,0.00,,,0.00,123,Wunderground v.1.15,2013-09-08 18:27:00,
2013-09-08 14:32:00,75.4,62.4,29.77,ENE,57,1.0,2.0,64,0.00,,,0.00,130,Wunderground v.1.15,2013-09-08 18:32:00,
2013-09-08 14:38:00,74.4,62.3,29.77,NNW,346,2.0,4.0,66,0.00,,,0.00,125,Wunderground v.1.15,2013-09-08 18:38:00,
2013-09-08 14:43:00,73.1,62.3,29.78,North,5,2.0,2.0,69,0.00,,,0.00,49,Wunderground v.1.15,2013-09-08 18:43:00,
2013-09-08 14:49:00,71.6,61.7,29.78,North,355,1.0,3.0,71,0.00,,,0.00,30,Wunderground v.1.15,2013-09-08 18:49:00,
2013-09-08 14:54:00,70.4,61.7,29.78,NNW,344,1.0,2.0,74,0.00,,,0.00,79,Wunderground v.1.15,2013-09-08 18:54:00,
2013-09-08 14:59:00,70.3,62.0,29.78,North,5,0.0,2.0,75,0.00,,,0.00,125,Wunderground v.1.15,2013-09-08 18:59:00,
2013-09-08 15:04:00,70.6,62.7,29.79,NNE,32,0.0,1.0,76,0.00,,,0.00,107,Wunderground v.1.15,2013-09-08 19:04:00,
2013-09-08 15:09:00,70.8,61.3,29.79,ENE,76,0.0,2.0,72,0.00,,,0.00,90,Wunderground v.1.15,2013-09-08 19:09:00,
2013-09-08 15:15:00,71.9,62.0,29.79,NNE,19,1.0,2.0,71,0.00,,,0.00,109,Wunderground v.1.15,2013-09-08 19:15:00,
2013-09-08 15:20:00,72.3,62.8,29.79,WNW,289,1.0,2.0,72,0.00,,,0.00,54,Wunderground v.1.15,2013-09-08 19:20:00,
2013-09-08 15:25:00,73.1,62.3,29.79,West,280,1.0,2.0,69,0.00,,,0.00,635,Wunderground v.1.15,2013-09-08 19:25:00,
2013-09-08 15:30:00,74.2,62.5,29.79,NNW,328,1.0,1.0,67,0.00,,,0.00,76,Wunderground v.1.15,2013-09-08 19:30:00,
2013-09-08 15:35:00,73.6,62.0,29.79,WNW,292,1.0,3.0,67,0.00,,,0.00,134,Wunderground v.1.15,2013-09-08 19:35:00,
2013-09-08 15:40:00,74.2,62.5,29.79,WNW,302,1.0,1.0,67,0.00,,,0.00,118,Wunderground v.1.15,2013-09-08 19:40:00,
2013-09-08 15:46:00,74.9,61.9,29.80,NNW,329,1.0,2.0,64,0.00,,,0.00,118,Wunderground v.1.15,2013-09-08 19:46:00,
2013-09-08 15:51:00,74.7,61.3,29.80,NW,319,1.0,1.0,63,0.00,,,0.00,121,Wunderground v.1.15,2013-09-08 19:51:00,
2013-09-08 15:56:00,74.2,59.9,29.80,North,5,1.0,4.0,61,0.00,,,0.00,568,Wunderground v.1.15,2013-09-08 19:56:00,
2013-09-08 16:01:00,74.1,60.7,29.81,NNE,28,1.0,1.0,63,0.00,,,0.00,561,Wunderground v.1.15,2013-09-08 20:01:00,
2013-09-08 16:06:00,74.0,59.7,29.81,NNW,346,1.0,2.0,61,0.00,,,0.00,545,Wunderground v.1.15,2013-09-08 20:06:00,
2013-09-08 16:12:00,74.4,61.0,29.81,NNW,329,1.0,1.0,63,0.00,,,0.00,513,Wunderground v.1.15,2013-09-08 20:12:00,
2013-09-08 16:17:00,74.7,55.4,29.81,NE,48,1.0,1.0,51,0.00,,,0.00,519,Wunderground v.1.15,2013-09-08 20:17:00,
2013-09-08 16:22:00,74.3,53.3,29.82,NW,321,2.0,3.0,48,0.00,,,0.00,497,Wunderground v.1.15,2013-09-08 20:22:00,
2013-09-08 16:27:00,74.5,53.5,29.82,NW,325,1.0,3.0,48,0.00,,,0.00,476,Wunderground v.1.15,2013-09-08 20:27:00,
2013-09-08 16:32:00,74.2,52.7,29.82,North,5,1.0,2.0,47,0.00,,,0.00,464,Wunderground v.1.15,2013-09-08 20:32:00,
2013-09-08 16:38:00,74.1,53.7,29.83,NNW,338,1.0,2.0,49,0.00,,,0.00,443,Wunderground v.1.15,2013-09-08 20:38:00,
2013-09-08 16:43:00,73.9,53.5,29.83,NNW,331,1.0,1.0,49,0.00,,,0.00,424,Wunderground v.1.15,2013-09-08 20:43:00,
2013-09-08 16:48:00,73.6,50.3,29.83,NNW,336,0.0,1.0,44,0.00,,,0.00,410,Wunderground v.1.15,2013-09-08 20:48:00,
2013-09-08 16:53:00,73.0,51.6,29.84,North,355,0.0,2.0,47,0.00,,,0.00,392,Wunderground v.1.15,2013-09-08 20:53:00,
2013-09-08 16:59:00,72.4,51.6,29.84,North,355,1.0,2.0,48,0.00,,,0.00,374,Wunderground v.1.15,2013-09-08 20:59:00,
2013-09-08 17:04:00,71.6,52.0,29.84,NNW,341,1.0,2.0,50,0.00,,,0.00,359,Wunderground v.1.15,2013-09-08 21:04:00,
2013-09-08 17:09:00,70.8,49.6,29.84,WSW,258,1.0,2.0,47,0.00,,,0.00,49,Wunderground v.1.15,2013-09-08 21:09:00,
2013-09-08 17:14:00,70.1,50.6,29.85,ENE,59,1.0,2.0,50,0.00,,,0.00,47,Wunderground v.1.15,2013-09-08 21:14:00,
2013-09-08 17:20:00,69.9,49.9,29.85,NW,304,1.0,1.0,49,0.00,,,0.00,46,Wunderground v.1.15,2013-09-08 21:20:00,
2013-09-08 17:25:00,69.4,48.9,29.85,NW,316,1.0,2.0,48,0.00,,,0.00,42,Wunderground v.1.15,2013-09-08 21:25:00,
2013-09-08 17:30:00,69.0,48.5,29.86,NNE,19,1.0,1.0,48,0.00,,,0.00,42,Wunderground v.1.15,2013-09-08 21:30:00,
2013-09-08 17:35:00,68.9,48.9,29.86,WSW,240,0.0,1.0,49,0.00,,,0.00,42,Wunderground v.1.15,2013-09-08 21:35:00,
2013-09-08 17:40:00,68.5,51.2,29.86,West,272,0.0,0.0,54,0.00,,,0.00,40,Wunderground v.1.15,2013-09-08 21:40:00,
2013-09-08 17:45:00,67.9,50.6,29.87,West,281,0.0,0.0,54,0.00,,,0.00,32,Wunderground v.1.15,2013-09-08 21:45:00,
2013-09-08 17:51:00,67.2,50.5,29.87,WNW,285,0.0,1.0,55,0.00,,,0.00,30,Wunderground v.1.15,2013-09-08 21:51:00,
2013-09-08 17:56:00,67.0,49.3,29.88,North,355,0.0,1.0,53,0.00,,,0.00,28,Wunderground v.1.15,2013-09-08 21:56:00,
2013-09-08 18:02:00,66.7,49.0,29.88,NW,323,1.0,1.0,53,0.00,,,0.00,26,Wunderground v.1.15,2013-09-08 22:02:00,
2013-09-08 18:07:00,66.4,48.7,29.88,NW,309,1.0,1.0,53,0.00,,,0.00,25,Wunderground v.1.15,2013-09-08 22:07:00,
2013-09-08 18:12:00,65.9,48.3,29.88,NNW,338,1.0,2.0,53,0.00,,,0.00,23,Wunderground v.1.15,2013-09-08 22:12:00,
2013-09-08 18:17:00,65.6,49.0,29.89,NE,34,0.0,2.0,55,0.00,,,0.00,19,Wunderground v.1.15,2013-09-08 22:17:00,
2013-09-08 18:22:00,65.1,47.0,29.89,NNW,347,1.0,5.0,52,0.00,,,0.00,18,Wunderground v.1.15,2013-09-08 22:22:00,
2013-09-08 18:27:00,65.1,47.0,29.90,ENE,64,1.0,5.0,52,0.00,,,0.00,16,Wunderground v.1.15,2013-09-08 22:27:00,
2013-09-08 18:33:00,64.6,46.6,29.91,North,5,1.0,1.0,52,0.00,,,0.00,14,Wunderground v.1.15,2013-09-08 22:33:00,
2013-09-08 18:38:00,64.1,44.5,29.91,NNW,344,0.0,3.0,49,0.00,,,0.00,11,Wunderground v.1.15,2013-09-08 22:38:00,
2013-09-08 18:44:00,63.9,45.4,29.91,East,80,0.0,2.0,51,0.00,,,0.00,9,Wunderground v.1.15,2013-09-08 22:44:00,
2013-09-08 18:49:00,63.5,45.6,29.91,NNW,342,0.0,2.0,52,0.00,,,0.00,7,Wunderground v.1.15,2013-09-08 22:49:00,
2013-09-08 18:54:00,62.8,45.9,29.92,NNW,327,0.0,0.0,54,0.00,,,0.00,5,Wunderground v.1.15,2013-09-08 22:54:00,
2013-09-08 18:59:00,62.3,46.4,29.92,NNW,327,0.0,0.0,56,0.00,,,0.00,0,Wunderground v.1.15,2013-09-08 22:59:00,
2013-09-08 19:05:00,61.6,46.7,29.92,NNW,327,0.0,0.0,58,0.00,,,0.00,0,Wunderground v.1.15,2013-09-08 23:05:00,
2013-09-08 19:10:00,61.3,47.3,29.93,NNW,328,0.0,0.0,60,0.00,,,0.00,0,Wunderground v.1.15,2013-09-08 23:10:00,
2013-09-08 19:15:00,61.0,47.9,29.93,NNW,329,0.0,0.0,62,0.00,,,0.00,0,Wunderground v.1.15,2013-09-08 23:15:00,
2013-09-08 19:20:00,60.6,47.9,29.94,NNW,328,0.0,0.0,63,0.00,,,0.00,0,Wunderground v.1.15,2013-09-08 23:20:00,
2013-09-08 19:25:00,60.5,47.8,29.94,NNW,328,0.0,0.0,63,0.00,,,0.00,0,Wunderground v.1.15,2013-09-08 23:25:00,
2013-09-08 19:30:00,60.0,48.6,29.95,NNW,329,0.0,0.0,66,0.00,,,0.00,0,Wunderground v.1.15,2013-09-08 23:30:00,
2013-09-08 19:36:00,59.2,48.2,29.95,NNW,329,0.0,0.0,67,0.00,,,0.00,0,Wunderground v.1.15,2013-09-08 23:36:00,
2013-09-08 19:41:00,58.7,48.2,29.95,NNW,328,0.0,0.0,68,0.00,,,0.00,0,Wunderground v.1.15,2013-09-08 23:41:00,
2013-09-08 19:47:00,58.5,47.6,29.96,NW,317,0.0,0.0,67,0.00,,,0.00,0,Wunderground v.1.15,2013-09-08 23:47:00,
2013-09-08 19:52:00,58.3,48.2,29.96,NW,317,0.0,0.0,69,0.00,,,0.00,0,Wunderground v.1.15,2013-09-08 23:52:00,
2013-09-08 19:57:00,58.1,48.0,29.97,NW,317,0.0,0.0,69,0.00,,,0.00,0,Wunderground v.1.15,2013-09-08 23:57:00,
2013-09-08 20:02:00,57.8,47.7,29.98,NW,317,0.0,0.0,69,0.00,,,0.00,0,Wunderground v.1.15,2013-09-09 00:02:00,
2013-09-08 20:08:00,57.5,47.8,29.98,NW,317,0.0,0.0,70,0.00,,,0.00,0,Wunderground v.1.15,2013-09-09 00:08:00,
2013-09-08 20:14:00,57.3,47.6,29.98,NW,317,0.0,0.0,70,0.00,,,0.00,0,Wunderground v.1.15,2013-09-09 00:14:00,
2013-09-08 20:19:00,57.5,46.2,29.99,NW,317,0.0,0.0,66,0.00,,,0.00,0,Wunderground v.1.15,2013-09-09 00:19:00,
2013-09-08 20:24:00,57.5,47.0,30.00,NW,317,0.0,0.0,68,0.00,,,0.00,0,Wunderground v.1.15,2013-09-09 00:24:00,
2013-09-08 20:29:00,57.4,46.9,30.00,NNW,344,0.0,0.0,68,0.00,,,0.00,0,Wunderground v.1.15,2013-09-09 00:29:00,
2013-09-08 20:34:00,57.1,47.0,30.00,NNE,20,0.0,2.0,69,0.00,,,0.00,0,Wunderground v.1.15,2013-09-09 00:34:00,
2013-09-08 20:40:00,57.0,46.1,30.00,NNW,342,0.0,0.0,67,0.00,,,0.00,0,Wunderground v.1.15,2013-09-09 00:40:00,
2013-09-08 20:45:00,57.2,46.3,30.01,NNW,346,0.0,0.0,67,0.00,,,0.00,0,Wunderground v.1.15,2013-09-09 00:45:00,
2013-09-08 20:50:00,57.2,46.3,30.01,NNW,346,0.0,0.0,67,0.00,,,0.00,0,Wunderground v.1.15,2013-09-09 00:50:00,
2013-09-08 20:56:00,57.2,45.9,30.02,North,350,0.0,1.0,66,0.00,,,0.00,0,Wunderground v.1.15,2013-09-09 00:56:00,
2013-09-08 21:02:00,57.3,45.6,30.02,NW,325,0.0,0.0,65,0.00,,,0.00,0,Wunderground v.1.15,2013-09-09 01:02:00,
2013-09-08 21:07:00,57.2,45.5,30.02,NW,325,0.0,0.0,65,0.00,,,0.00,0,Wunderground v.1.15,2013-09-09 01:07:00,
2013-09-08 21:12:00,57.3,46.0,30.03,North,5,0.0,0.0,66,0.00,,,0.00,0,Wunderground v.1.15,2013-09-09 01:12:00,
2013-09-08 21:18:00,57.2,45.1,30.03,WNW,283,0.0,1.0,64,0.00,,,0.00,0,Wunderground v.1.15,2013-09-09 01:18:00,
2013-09-08 21:24:00,57.3,44.8,30.03,NW,310,0.0,0.0,63,0.00,,,0.00,0,Wunderground v.1.15,2013-09-09 01:24:00,
2013-09-08 21:29:00,57.3,45.6,30.04,NW,319,0.0,0.0,65,0.00,,,0.00,0,Wunderground v.1.15,2013-09-09 01:29:00,
2013-09-08 21:34:00,56.9,45.7,30.04,North,355,0.0,2.0,66,0.00,,,0.00,0,Wunderground v.1.15,2013-09-09 01:34:00,
2013-09-08 21:40:00,56.6,45.8,30.04,ENE,63,0.0,0.0,67,0.00,,,0.00,0,Wunderground v.1.15,2013-09-09 01:40:00,
2013-09-08 21:45:00,56.2,45.8,30.05,ENE,63,0.0,0.0,68,0.00,,,0.00,0,Wunderground v.1.15,2013-09-09 01:45:00,
2013-09-08 21:50:00,55.9,45.5,30.05,ENE,63,0.0,0.0,68,0.00,,,0.00,0,Wunderground v.1.15,2013-09-09 01:50:00,
2013-09-08 21:55:00,55.7,45.7,30.05,ENE,63,0.0,0.0,69,0.00,,,0.00,0,Wunderground v.1.15,2013-09-09 01:55:00,
2013-09-08 22:01:00,55.4,45.8,30.05,North,5,0.0,0.0,70,0.00,,,0.00,0,Wunderground v.1.15,2013-09-09 02:01:00,
2013-09-08 22:06:00,55.3,45.3,30.05,North,5,0.0,0.0,69,0.00,,,0.00,0,Wunderground v.1.15,2013-09-09 02:06:00,
2013-09-08 22:11:00,55.1,45.5,30.06,North,5,0.0,0.0,70,0.00,,,0.00,0,Wunderground v.1.15,2013-09-09 02:11:00,
2013-09-08 22:16:00,55.0,45.4,30.06,North,5,0.0,0.0,70,0.00,,,0.00,0,Wunderground v.1.15,2013-09-09 02:16:00,
2013-09-08 22:22:00,54.9,45.3,30.06,North,5,0.0,0.0,70,0.00,,,0.00,0,Wunderground v.1.15,2013-09-09 02:22:00,
2013-09-08 22:27:00,54.7,45.5,30.07,North,5,0.0,0.0,71,0.00,,,0.00,0,Wunderground v.1.15,2013-09-09 02:27:00,
2013-09-08 22:32:00,54.4,45.2,30.07,North,5,0.0,0.0,71,0.00,,,0.00,0,Wunderground v.1.15,2013-09-09 02:32:00,
2013-09-08 22:37:00,54.1,44.9,30.07,North,5,0.0,0.0,71,0.00,,,0.00,0,Wunderground v.1.15,2013-09-09 02:37:00,
2013-09-08 22:42:00,54.0,45.2,30.07,North,5,0.0,0.0,72,0.00,,,0.00,0,Wunderground v.1.15,2013-09-09 02:42:00,
2013-09-08 22:47:00,53.9,45.8,30.07,North,5,0.0,0.0,74,0.00,,,0.00,0,Wunderground v.1.15,2013-09-09 02:47:00,
2013-09-08 22:53:00,53.6,45.2,30.07,North,5,0.0,0.0,73,0.00,,,0.00,0,Wunderground v.1.15,2013-09-09 02:53:00,
2013-09-08 22:59:00,53.2,45.1,30.07,North,5,0.0,0.0,74,0.00,,,0.00,0,Wunderground v.1.15,2013-09-09 02:59:00,
2013-09-08 23:05:00,52.8,45.4,30.07,North,5,0.0,0.0,76,0.00,,,0.00,0,Wunderground v.1.15,2013-09-09 03:05:00,
2013-09-08 23:10:00,52.5,45.5,30.08,North,5,0.0,0.0,77,0.00,,,0.00,0,Wunderground v.1.15,2013-09-09 03:10:00,
2013-09-08 23:15:00,52.3,45.3,30.08,North,5,0.0,0.0,77,0.00,,,0.00,0,Wunderground v.1.15,2013-09-09 03:15:00,
2013-09-08 23:20:00,52.2,45.9,30.08,North,5,0.0,0.0,79,0.00,,,0.00,0,Wunderground v.1.15,2013-09-09 03:20:00,
2013-09-08 23:25:00,52.1,45.8,30.08,North,5,0.0,0.0,79,0.00,,,0.00,0,Wunderground v.1.15,2013-09-09 03:25:00,
2013-09-08 23:30:00,52.2,45.9,30.08,North,5,0.0,0.0,79,0.00,,,0.00,0,Wunderground v.1.15,2013-09-09 03:30:00,
2013-09-08 23:35:00,52.0,45.4,30.08,North,5,0.0,0.0,78,0.00,,,0.00,0,Wunderground v.1.15,2013-09-09 03:35:00,
2013-09-08 23:40:00,51.8,45.2,30.08,North,5,0.0,0.0,78,0.00,,,0.00,0,Wunderground v.1.15,2013-09-09 03:40:00,
2013-09-08 23:46:00,51.4,45.1,30.09,North,5,0.0,0.0,79,0.00,,,0.00,0,Wunderground v.1.15,2013-09-09 03:46:00,
2013-09-08 23:51:00,50.8,44.9,30.09,North,5,0.0,0.0,80,0.00,,,0.00,0,Wunderground v.1.15,2013-09-09 03:51:00,
2013-09-08 23:56:00,50.4,45.4,30.09,North,5,0.0,0.0,83,0.00,,,0.00,0,Wunderground v.1.15,2013-09-09 03:56:00,